H1 CPF 2 NER 2020 12 21 9 356 01 glonass132 H2 1401201 9132 39620 2020 12 21 0 0 0 2020 12 24 23 45 0 900 1 1 0 0 0 1 H9 10 0 59204 0.00000 0 -10935333.851 -457330.629 -23023395.002 10 0 59204 900.00000 0 -9966433.830 -3152655.137 -23246562.349 10 0 59204 1800.00000 0 -9204798.563 -5913834.264 -23017265.869 10 0 59204 2700.00000 0 -8665960.505 -8670622.603 -22339784.564 10 0 59204 3600.00000 0 -8352772.556 -11351595.469 -21227148.292 10 0 59204 4500.00000 0 -8255386.676 -13886911.389 -19700895.576 10 0 59204 5400.00000 0 -8351785.938 -16211020.213 -17790662.200 10 0 59204 6300.00000 0 -8608848.136 -18265203.245 -15533607.702 10 0 59204 7200.00000 0 -8983895.892 -19999838.346 -12973690.547 10 0 59204 8100.00000 0 -9426667.224 -21376294.441 -10160806.006 10 0 59204 9000.00000 0 -9881622.160 -22368375.358 -7149803.889 10 0 59204 9900.00000 0 -10290486.320 -22963252.020 -3999406.230 10 0 59204 10800.00000 0 -10594921.958 -23161844.010 -771047.234 10 0 59204 11700.00000 0 -10739211.383 -22978635.156 2472340.383 10 0 59204 12600.00000 0 -10672837.210 -22440932.200 5667567.175 10 0 59204 13500.00000 0 -10352848.495 -21587599.539 8752431.036 10 0 59204 14400.00000 0 -9745911.321 -20467325.455 11666937.843 10 0 59204 15300.00000 0 -8829956.316 -19136495.088 14354473.701 10 0 59204 16200.00000 0 -7595353.231 -17656761.819 16762905.380 10 0 59204 17100.00000 0 -6045563.134 -16092420.932 18845587.502 10 0 59204 18000.00000 0 -4197241.278 -14507697.176 20562257.358 10 0 59204 18900.00000 0 -2079786.937 -12964060.557 21879801.038 10 0 59204 19800.00000 0 265640.362 -11517682.636 22772877.506 10 0 59204 20700.00000 0 2787596.568 -10217138.957 23224390.169 10 0 59204 21600.00000 0 5426259.168 -9101452.103 23225798.669 10 0 59204 22500.00000 0 8115684.522 -8198555.209 22777266.559 10 0 59204 23400.00000 0 10786323.327 -7524237.909 21887643.498 10 0 59204 24300.00000 0 13367690.945 -7081616.527 20574283.403 10 0 59204 25200.00000 0 15791083.352 -6861148.625 18862702.733 10 0 59204 26100.00000 0 17992227.719 -6841189.687 16786085.715 10 0 59204 27000.00000 0 19913759.538 -6989067.516 14384645.798 10 0 59204 27900.00000 0 21507425.261 -7262628.719 11704854.988 10 0 59204 28800.00000 0 22735920.436 -7612192.399 8798555.086 10 0 59204 29700.00000 0 23574288.193 -7982829.320 5721966.852 10 0 59204 30600.00000 0 24010820.696 -8316871.395 2534615.017 10 0 59204 31500.00000 0 24047426.350 -8556546.630 -701811.125 10 0 59204 32400.00000 0 23699447.475 -8646629.203 -3924640.592 10 0 59204 33300.00000 0 22994935.655 -8536993.423 -7071425.088 10 0 59204 34200.00000 0 21973414.397 -8184963.937 -10081142.092 10 0 59204 35100.00000 0 20684180.029 -7557362.658 -12895373.908 10 0 59204 36000.00000 0 19184211.010 -6632165.101 -15459440.033 10 0 59204 36900.00000 0 17535772.319 -5399694.841 -17723460.896 10 0 59204 37800.00000 0 15803814.510 -3863303.747 -19643332.192 10 0 59204 38700.00000 0 14053275.760 -2039506.907 -21181590.589 10 0 59204 39600.00000 0 12346399.690 42436.100 -22308153.451 10 0 59204 40500.00000 0 10740181.272 2341478.847 -23000917.550 10 0 59204 41400.00000 0 9284048.066 4806247.267 -23246204.295 10 0 59204 42300.00000 0 8017874.509 7376941.708 -23039041.816 10 0 59204 43200.00000 0 6970413.139 9987604.372 -22383277.329 10 0 59204 44100.00000 0 6158209.309 12568658.818 -21291516.420 10 0 59204 45000.00000 0 5585045.664 15049616.218 -19784889.284 10 0 59204 45900.00000 0 5241940.249 17361835.491 -17892647.450 10 0 59204 46800.00000 0 5107698.542 19441221.641 -15651597.988 10 0 59204 47700.00000 0 5149996.011 21230748.569 -13105385.772 10 0 59204 48600.00000 0 5326944.897 22682699.808 -10303637.690 10 0 59204 49500.00000 0 5589077.922 23760532.276 -7300985.797 10 0 59204 50400.00000 0 5881663.539 24440284.017 -4155989.374 10 0 59204 51300.00000 0 6147252.837 24711466.456 -929978.099 10 0 59204 52200.00000 0 6328348.154 24577403.824 2314159.591 10 0 59204 53100.00000 0 6370078.310 24055006.183 5513217.523 10 0 59204 54000.00000 0 6222765.169 23173986.976 8604916.371 10 0 59204 54900.00000 0 5844271.299 21975559.745 11529126.057 10 0 59204 55800.00000 0 5202028.272 20510670.925 14229040.928 10 0 59204 56700.00000 0 4274659.263 18837845.075 16652284.242 10 0 59204 57600.00000 0 3053127.344 17020734.925 18751920.374 10 0 59204 58500.00000 0 1541361.413 15125480.501 20487355.512 10 0 59204 59400.00000 0 -243666.029 13217988.854 21825110.398 10 0 59204 60300.00000 0 -2272411.889 11361248.282 22739451.569 10 0 59204 61200.00000 0 -4503765.871 9612788.793 23212870.525 10 0 59204 62100.00000 0 -6886542.042 8022393.473 23236403.404 10 0 59204 63000.00000 0 -9361396.447 6630154.362 22809786.693 10 0 59204 63900.00000 0 -11863091.329 5464951.720 21941447.455 10 0 59204 64800.00000 0 -14323012.772 4543417.656 20648329.420 10 0 59204 65700.00000 0 -16671838.432 3869424.986 18955558.954 10 0 59204 66600.00000 0 -18842246.051 3434120.638 16895957.620 10 0 59204 67500.00000 0 -20771552.012 3216500.509 14509410.468 10 0 59204 68400.00000 0 -22404171.970 3184500.608 11842101.626 10 0 59204 69300.00000 0 -23693802.729 3296558.185 8945631.059 10 0 59204 70200.00000 0 -24605235.841 3503577.272 5876028.428 10 0 59204 71100.00000 0 -25115728.191 3751216.347 2692681.867 10 0 59204 72000.00000 0 -25215872.803 3982402.469 -542798.680 10 0 59204 72900.00000 0 -24909933.478 4139966.618 -3767762.681 10 0 59204 73800.00000 0 -24215628.812 4169289.697 -6919722.850 10 0 59204 74700.00000 0 -23163373.803 4020847.872 -9937558.850 10 0 59204 75600.00000 0 -21795009.745 3652549.729 -12762698.081 10 0 59204 76500.00000 0 -20162074.336 3031766.040 -15340250.909 10 0 59204 77400.00000 0 -18323683.255 2136965.388 -17620078.283 10 0 59204 78300.00000 0 -16344110.706 958885.051 -19557770.960 10 0 59204 79200.00000 0 -14290169.270 -498814.350 -21115520.985 10 0 59204 80100.00000 0 -12228498.014 -2219440.421 -22262867.981 10 0 59204 81000.00000 0 -10222871.923 -4173714.112 -22977305.120 10 0 59204 81900.00000 0 -8331645.084 -6320752.459 -23244732.159 10 0 59204 82800.00000 0 -6605434.830 -8609550.319 -23059745.733 10 0 59204 83700.00000 0 -5085144.154 -10980901.301 -22425760.180 10 0 59204 84600.00000 0 -3800405.717 -13369679.307 -21354955.362 10 0 59204 85500.00000 0 -2768513.259 -15707386.251 -19868051.366 10 0 59205 0.00000 0 -1993885.649 -17924859.942 -17993913.465 10 0 59205 900.00000 0 -1468086.407 -19955028.603 -15768993.891 10 0 59205 1800.00000 0 -1170397.292 -21735596.290 -13236621.556 10 0 59205 2700.00000 0 -1068922.075 -23211544.838 -10446152.441 10 0 59205 3600.00000 0 -1122171.820 -24337347.445 -7451998.295 10 0 59205 4500.00000 0 -1281063.971 -25078798.725 -4312553.105 10 0 59205 5400.00000 0 -1491248.439 -25414384.081 -1089039.537 10 0 59205 6300.00000 0 -1695660.148 -25336130.252 2155700.663 10 0 59205 7200.00000 0 -1837187.725 -24849901.443 5358446.932 10 0 59205 8100.00000 0 -1861343.125 -23975129.358 8456844.982 10 0 59205 9000.00000 0 -1718817.287 -22743989.807 11390630.945 10 0 59205 9900.00000 0 -1367812.239 -21200062.198 14102809.474 10 0 59205 10800.00000 0 -776050.162 -19396530.159 16540762.223 10 0 59205 11700.00000 0 77625.843 -17394000.621 18657265.053 10 0 59205 12600.00000 0 1202126.589 -15258034.391 20411394.549 10 0 59205 13500.00000 0 2593514.125 -13056492.624 21769307.330 10 0 59205 14400.00000 0 4234946.212 -10856810.516 22704878.422 10 0 59205 15300.00000 0 6097169.504 -8723311.750 23200188.015 10 0 59205 16200.00000 0 8139540.290 -6714674.619 23245849.018 10 0 59205 17100.00000 0 10311529.950 -4881653.683 22841170.808 10 0 59205 18000.00000 0 12554652.428 -3265149.734 21994157.524 10 0 59205 18900.00000 0 14804734.070 -1894705.925 20721342.102 10 0 59205 19800.00000 0 16994432.373 -787490.156 19047459.943 10 0 59205 20700.00000 0 19055900.127 52196.185 17004968.813 10 0 59205 21600.00000 0 20923485.696 632864.743 14633423.972 10 0 59205 22500.00000 0 22536358.675 975245.800 11978719.996 10 0 59205 23400.00000 0 23840953.036 1111178.836 9092213.051 10 0 59205 24300.00000 0 24793127.250 1082035.117 6029739.438 10 0 59205 25200.00000 0 25359952.167 936738.538 2850548.156 10 0 59205 26100.00000 0 25521052.441 729467.593 -383832.973 10 0 59205 27000.00000 0 25269445.458 517134.675 -3610776.797 10 0 59205 27900.00000 0 24611842.176 356748.394 -6767760.029 10 0 59205 28800.00000 0 23568396.399 302769.653 -9793567.466 10 0 59205 29700.00000 0 22171911.766 404572.936 -12629474.416 10 0 59205 30600.00000 0 20466538.184 704120.171 -15220384.696 10 0 59205 31500.00000 0 18506010.784 1233946.052 -17515902.106 10 0 59205 32400.00000 0 16351503.592 2015541.049 -19471314.514 10 0 59205 33300.00000 0 14069186.311 3058202.015 -21048471.115 10 0 59205 34200.00000 0 11727585.336 4358400.941 -22216535.307 10 0 59205 35100.00000 0 9394858.482 5899700.912 -22952597.916 10 0 59205 36000.00000 0 7136096.796 7653225.421 -23242138.018 10 0 59205 36900.00000 0 5010766.141 9578663.913 -23079321.413 10 0 59205 37800.00000 0 3070395.556 11625773.722 -22467129.876 10 0 59205 38700.00000 0 1356609.369 13736317.444 -21417317.473 10 0 59205 39600.00000 0 -100414.108 15846355.880 -19950193.694 10 0 59205 40500.00000 0 -1282992.381 17888801.280 -18094236.533 10 0 59205 41400.00000 0 -2186452.846 19796124.007 -15885542.222 10 0 59205 42300.00000 0 -2819089.567 21503098.555 -13367121.821 10 0 59205 43200.00000 0 -3201565.093 22949472.787 -10588058.232 10 0 59205 44100.00000 0 -3365783.477 24082447.026 -7602540.346 10 0 59205 45000.00000 0 -3353283.431 24858857.429 -4468793.996 10 0 59205 45900.00000 0 -3213221.390 25246970.624 -1247931.741 10 0 59205 46800.00000 0 -3000031.971 25227813.235 1997254.621 10 0 59205 47700.00000 0 -2770867.143 24795979.944 5203533.463 10 0 59205 48600.00000 0 -2582924.886 23959886.298 8308478.827 10 0 59205 49500.00000 0 -2490782.522 22741456.402 11251696.243 10 0 59205 50400.00000 0 -2543849.270 21175259.901 13976003.676 10 0 59205 51300.00000 0 -2784046.955 19307136.100 16428543.962 10 0 59205 52200.00000 0 -3243817.461 17192364.591 18561806.963 10 0 59205 53100.00000 0 -3944541.010 14893460.648 20334541.888 10 0 59205 54000.00000 0 -4895431.499 12477688.764 21712543.144 10 0 59205 54900.00000 0 -6092954.605 10014398.790 22669295.813 10 0 59205 55800.00000 0 -7520792.188 7572295.829 23186469.970 10 0 59205 56700.00000 0 -9150353.684 5216756.786 23254256.067 10 0 59205 57600.00000 0 -10941812.523 3007303.829 22871536.678 10 0 59205 58500.00000 0 -12845624.027 995337.911 22045892.813 10 0 59205 59400.00000 0 -14804461.653 -777775.865 20793445.860 10 0 59205 60300.00000 0 -16755491.550 -2282193.949 19138538.955 10 0 59205 61200.00000 0 -18632891.597 -3500591.826 17113264.211 10 0 59205 62100.00000 0 -20370511.317 -4428634.036 14756844.741 10 0 59205 63000.00000 0 -21904563.264 -5074899.134 12114882.770 10 0 59205 63900.00000 0 -23176235.052 -5460264.055 9238487.515 10 0 59205 64800.00000 0 -24134114.315 -5616774.646 6183298.526 10 0 59205 65700.00000 0 -24736326.277 -5586050.064 3008422.133 10 0 59205 66600.00000 0 -24952295.098 -5417287.964 -224699.548 10 0 59205 67500.00000 0 -24764055.379 -5164954.026 -3453466.290 10 0 59205 68400.00000 0 -24167058.457 -4886252.573 -6615322.261 10 0 59205 69300.00000 0 -23170438.833 -4638484.326 -9648960.700 10 0 59205 70200.00000 0 -21796728.220 -4476402.422 -12495507.927 10 0 59205 71100.00000 0 -20081027.585 -4449678.154 -15099664.067 10 0 59205 72000.00000 0 -18069670.079 -4600583.719 -17410778.298 10 0 59205 72900.00000 0 -15818428.973 -4961990.537 -19383837.721 10 0 59205 73800.00000 0 -13390343.818 -5555768.845 -20980350.314 10 0 59205 74700.00000 0 -10853254.210 -6391657.722 -22169104.323 10 0 59205 75600.00000 0 -8277142.925 -7466655.248 -22926788.695 10 0 59205 76500.00000 0 -5731398.479 -8764956.807 -23238461.692 10 0 59205 77400.00000 0 -3282110.910 -10258446.513 -23097857.581 10 0 59205 78300.00000 0 -989513.513 -11907723.452 -22507524.353 10 0 59205 79200.00000 0 1094322.576 -13663621.686 -21478788.627 10 0 59205 80100.00000 0 2927444.221 -15469161.744 -20031547.270 10 0 59205 81000.00000 0 4479540.405 -17261852.706 -18193888.742 10 0 59205 81900.00000 0 5732970.564 -18976248.579 -16001550.639 10 0 59205 82800.00000 0 6683253.864 -20546651.293 -13497223.510 10 0 59205 83700.00000 0 7338999.227 -21909845.882 -10729714.347 10 0 59205 84600.00000 0 7721279.801 -23007751.599 -7752986.288 10 0 59205 85500.00000 0 7862479.433 -23789875.870 -4625094.110 10 0 59206 0.00000 0 7804661.552 -24215466.392 -1407037.460 10 0 59206 900.00000 0 7597531.568 -24255269.089 1838444.727 10 0 59206 1800.00000 0 7296080.998 -23892818.079 5048112.351 10 0 59206 2700.00000 0 6958015.959 -23125201.122 8159470.273 10 0 59206 3600.00000 0 6641080.549 -21963270.602 11111995.700 10 0 59206 4500.00000 0 6400390.723 -20431290.512 13848321.961 10 0 59206 5400.00000 0 6285892.669 -18566036.138 16315354.863 10 0 59206 6300.00000 0 6340054.015 -16415385.403 18465299.753 10 0 59206 7200.00000 0 6595885.486 -14036462.411 20256579.647 10 0 59206 8100.00000 0 7075376.086 -11493412.017 21654627.574 10 0 59206 9000.00000 0 7788406.891 -8854899.076 22632539.185 10 0 59206 9900.00000 0 8732188.044 -6191436.899 23171574.601 10 0 59206 10800.00000 0 9891241.473 -3572655.586 23261501.670 10 0 59206 11700.00000 0 11237929.119 -1064622.674 22900775.729 10 0 59206 12600.00000 0 12733503.885 1272674.260 22096553.966 10 0 59206 13500.00000 0 14329639.140 3387580.747 20864545.311 10 0 59206 14400.00000 0 15970373.127 5238673.230 19228699.519 10 0 59206 15300.00000 0 17594387.727 6796225.177 17220741.750 10 0 59206 16200.00000 0 19137527.481 8043183.002 14879561.485 10 0 59206 17100.00000 0 20535454.983 8975613.324 12250466.922 10 0 59206 18000.00000 0 21726333.022 9602604.563 9384318.449 10 0 59206 18900.00000 0 22653422.664 9945628.243 6336556.777 10 0 59206 19800.00000 0 23267489.614 10037387.430 3166143.271 10 0 59206 20700.00000 0 23528918.768 9920200.754 -65568.126 10 0 59206 21600.00000 0 23409448.586 9643989.725 -3296006.703 10 0 59206 22500.00000 0 22893452.254 9263953.554 -6462586.724 10 0 59206 23400.00000 0 21978711.071 8838028.783 -9503912.464 10 0 59206 24300.00000 0 20676646.323 8424240.309 -12360963.753 10 0 59206 25200.00000 0 19011998.199 8078055.150 -14978239.327 10 0 59206 26100.00000 0 17021963.224 7849850.548 -17304835.844 10 0 59206 27000.00000 0 14754824.241 7782603.586 -19295441.498 10 0 59206 27900.00000 0 12268128.117 7909900.567 -20911224.703 10 0 59206 28800.00000 0 9626485.472 8254351.299 -22120600.001 10 0 59206 29700.00000 0 6899082.664 8826476.753 -22899855.716 10 0 59206 30600.00000 0 4157008.509 9624118.892 -23233630.353 10 0 59206 31500.00000 0 1470506.496 10632399.581 -23115227.439 10 0 59206 32400.00000 0 -1093733.447 11824232.460 -22546761.679 10 0 59206 33300.00000 0 -3475130.759 13161368.193 -21539132.376 10 0 59206 34200.00000 0 -5621510.718 14595930.750 -20111823.508 10 0 59206 35100.00000 0 -7491045.330 16072381.243 -18292533.279 10 0 59206 36000.00000 0 -9053757.131 17529827.319 -16116639.498 10 0 59206 36900.00000 0 -10292522.628 18904580.797 -13626510.639 10 0 59206 37800.00000 0 -11203533.395 20132855.241 -10870675.838 10 0 59206 38700.00000 0 -11796195.926 21153488.706 -7902870.219 10 0 59206 39600.00000 0 -12092475.368 21910575.346 -4780974.972 10 0 59206 40500.00000 0 -12125712.284 22355893.341 -1565873.960 10 0 59206 41400.00000 0 -11938964.317 22451025.175 1679749.370 10 0 59206 42300.00000 0 -11582945.021 22169079.582 4892649.541 10 0 59206 43200.00000 0 -11113649.488 21495941.749 8010265.254 10 0 59206 44100.00000 0 -10589769.539 20430998.811 10971948.401 10 0 59206 45000.00000 0 -10070009.968 18987310.387 13720150.602 10 0 59206 45900.00000 0 -9610420.979 17191217.752 16201543.449 10 0 59206 46800.00000 0 -9261860.631 15081409.124 18368050.430 10 0 59206 47700.00000 0 -9067694.826 12707481.485 20177770.805 10 0 59206 48600.00000 0 -9061831.620 10128060.247 21595778.424 10 0 59206 49500.00000 0 -9267171.835 7408556.080 22594781.399 10 0 59206 50400.00000 0 -9694539.973 4618652.809 23155631.463 10 0 59206 51300.00000 0 -10342138.947 1829630.698 23267675.032 10 0 59206 52200.00000 0 -11195550.154 -888364.547 22928940.946 10 0 59206 53100.00000 0 -12228277.765 -3468995.030 22146162.829 10 0 59206 54000.00000 0 -13402813.646 -5852237.257 20934636.897 10 0 59206 54900.00000 0 -14672178.116 -7986620.392 19317918.722 10 0 59206 55800.00000 0 -15981872.248 -9831105.663 17327365.189 10 0 59206 56700.00000 0 -17272160.739 -11356531.379 15001530.291 10 0 59206 57600.00000 0 -18480590.858 -12546565.674 12385425.887 10 0 59206 58500.00000 0 -19544643.244 -13398129.162 9529660.820 10 0 59206 59400.00000 0 -20404404.787 -13921271.296 6489473.911 10 0 59206 60300.00000 0 -21005152.722 -14138506.544 3323678.285 10 0 59206 61200.00000 0 -21299742.330 -14083638.531 93536.263 10 0 59206 62100.00000 0 -21250698.500 -13800121.462 -3138414.497 10 0 59206 63000.00000 0 -20831923.163 -13339027.294 -6309561.924 10 0 59206 63900.00000 0 -20029946.270 -12756703.556 -9358424.877 10 0 59206 64800.00000 0 -18844666.565 -12112219.814 -12225840.139 10 0 59206 65700.00000 0 -17289549.345 -11464709.817 -14856108.352 10 0 59206 66600.00000 0 -15391270.896 -10870720.988 -17198076.673 10 0 59206 67500.00000 0 -13188822.189 -10381683.007 -19206137.078 10 0 59206 68400.00000 0 -10732106.973 -10041602.526 -20841120.632 10 0 59206 69300.00000 0 -8080090.647 -9885081.942 -22071069.839 10 0 59206 70200.00000 0 -5298575.161 -9935746.852 -22871873.456 10 0 59206 71100.00000 0 -2457691.038 -10205149.904 -23227750.631 10 0 59206 72000.00000 0 370790.080 -10692198.904 -23131573.942 10 0 59206 72900.00000 0 3116211.200 -11383135.045 -22585024.021 10 0 59206 73800.00000 0 5711739.590 -12252063.944 -21598571.568 10 0 59206 74700.00000 0 8096917.109 -13262018.613 -20191285.943 10 0 59206 75600.00000 0 10219944.598 -14366510.791 -18390473.019 10 0 59206 76500.00000 0 12039604.463 -15511505.918 -16231148.414 10 0 59206 77400.00000 0 13526740.523 -16637738.589 -13755355.843 10 0 59206 78300.00000 0 14665232.981 -17683270.364 -11011343.652 10 0 59206 79200.00000 0 15452427.711 -18586180.967 -8052615.804 10 0 59206 80100.00000 0 15899002.369 -19287277.824 -4936876.592 10 0 59206 81000.00000 0 16028276.124 -19732707.828 -1724890.776 10 0 59206 81900.00000 0 15874993.715 -19876359.301 1520717.209 10 0 59206 82800.00000 0 15483637.190 -19681951.147 4736699.743 10 0 59206 83700.00000 0 14906338.985 -19124719.806 7860432.461 10 0 59206 84600.00000 0 14200486.953 -18192632.102 10831144.743 10 0 59206 85500.00000 0 13426124.791 -16887072.688 13591108.958 10 0 59207 0.00000 0 12643259.626 -15222977.563 16086764.486 10 0 59207 900.00000 0 11909192.031 -13228408.314 18269754.668 10 0 59207 1800.00000 0 11275981.002 -10943587.073 20097856.162 10 0 59207 2700.00000 0 10788152.275 -8419431.913 21535784.383 10 0 59207 3600.00000 0 10480744.027 -5715656.181 22555860.250 10 0 59207 4500.00000 0 10377772.216 -2898510.701 23138527.068 10 0 59207 5400.00000 0 10491177.870 -38263.095 23272709.424 10 0 59207 6300.00000 0 10820298.964 2793481.754 22956008.951 10 0 59207 7200.00000 0 11351887.418 5526509.888 22194734.726 10 0 59207 8100.00000 0 12060669.158 8094663.721 21003769.023 10 0 59207 9000.00000 0 12910422.948 10438336.286 19406271.815 10 0 59207 9900.00000 0 13855532.423 12506693.063 17433230.100 10 0 59207 10800.00000 0 14842946.482 14259531.590 15122860.631 10 0 59207 11700.00000 0 15814466.549 15668703.837 12519877.006 10 0 59207 12600.00000 0 16709265.758 16719044.043 9674634.443 10 0 59207 13500.00000 0 17466535.509 17408764.942 6642167.654 10 0 59207 14400.00000 0 18028149.463 17749306.877 3481139.140 10 0 59207 15300.00000 0 18341233.988 17764646.653 252717.128 10 0 59207 16200.00000 0 18360537.617 17490095.178 -2980596.321 10 0 59207 17100.00000 0 18050500.038 16970634.040 -6156165.330 10 0 59207 18000.00000 0 17386933.157 16258860.300 -9212425.796 10 0 59207 18900.00000 0 16358242.588 15412625.214 -12090073.767 10 0 59207 19800.00000 0 14966136.633 14492465.514 -14733213.908 10 0 59207 20700.00000 0 13225791.010 13558934.816 -17090445.775 10 0 59207 21600.00000 0 11165460.037 12669947.143 -19115866.795 10 0 59207 22500.00000 0 8825547.987 11878244.422 -20769972.147 10 0 59207 23400.00000 0 6257176.967 11229094.897 -22020433.575 10 0 59207 24300.00000 0 3520308.727 10758320.066 -22842741.357 10 0 59207 25200.00000 0 681496.690 10490734.196 -23220696.182 10 0 59207 26100.00000 0 -2188639.671 10439063.400 -23146740.333 10 0 59207 27000.00000 0 -5018114.030 10603391.179 -22622120.734 10 0 59207 27900.00000 0 -7736334.215 10971155.215 -21656879.486 10 0 59207 28800.00000 0 -10276810.028 11517696.877 -20269670.941 10 0 59207 29700.00000 0 -12579694.793 12207341.308 -18487407.814 10 0 59207 30600.00000 0 -14594054.074 12994963.213 -16344742.296 10 0 59207 31500.00000 0 -16279766.094 13827972.414 -13883391.741 10 0 59207 32400.00000 0 -17608973.854 14648634.974 -11151321.798 10 0 59207 33300.00000 0 -18567027.846 15396630.874 -8201803.119 10 0 59207 34200.00000 0 -19152879.880 16011738.773 -5092360.785 10 0 59207 35100.00000 0 -19378912.172 16436532.611 -1883637.991 10 0 59207 36000.00000 0 -19270210.118 16618974.188 1361802.379 10 0 59207 36900.00000 0 -18863311.086 16514790.280 4580713.185 10 0 59207 37800.00000 0 -18204484.200 16089532.339 7710409.663 10 0 59207 38700.00000 0 -17347616.022 15320230.608 10690001.380 10 0 59207 39600.00000 0 -16351793.751 14196572.298 13461584.156 10 0 59207 40500.00000 0 -15278690.016 12721554.091 15971367.893 10 0 59207 41400.00000 0 -14189861.225 10911581.859 18170718.159 10 0 59207 42300.00000 0 -13144074.349 8796014.150 20017091.451 10 0 59207 43200.00000 0 -12194774.974 6416169.416 21474846.940 10 0 59207 44100.00000 0 -11387802.664 3823839.225 22515920.231 10 0 59207 45000.00000 0 -10759448.533 1079370.128 23120347.765 10 0 59207 45900.00000 0 -10334934.914 -1750605.828 23276633.518 10 0 59207 46800.00000 0 -10127378.972 -4595697.955 22981952.734 10 0 59207 47700.00000 0 -10137281.726 -7384437.055 22242190.349 10 0 59207 48600.00000 0 -10352562.043 -10046999.050 21071814.673 10 0 59207 49500.00000 0 -10749132.710 -12517861.051 19493589.605 10 0 59207 50400.00000 0 -11291993.471 -14738281.704 17538131.333 10 0 59207 51300.00000 0 -11936794.800 -16658505.193 15243318.008 10 0 59207 52200.00000 0 -12631806.930 -18239599.552 12653563.188 10 0 59207 53100.00000 0 -13320212.107 -19454854.690 9818966.334 10 0 59207 54000.00000 0 -13942624.684 -20290683.590 6794355.584 10 0 59207 54900.00000 0 -14439734.177 -20746990.173 3638240.102 10 0 59207 55800.00000 0 -14754961.122 -20836989.099 411691.077 10 0 59207 56700.00000 0 -14837014.691 -20586485.204 -2822828.140 10 0 59207 57600.00000 0 -14642244.778 -20032642.520 -6002661.122 10 0 59207 58500.00000 0 -14136689.361 -19222293.875 -9066164.158 10 0 59207 59400.00000 0 -13297730.236 -18209861.330 -11953895.963 10 0 59207 60300.00000 0 -12115286.143 -17054973.914 -14609768.591 10 0 59207 61200.00000 0 -10592491.267 -15819882.037 -16982137.255 10 0 59207 62100.00000 0 -8745828.365 -14566776.660 -19024807.854 10 0 59207 63000.00000 0 -6604708.276 -13355125.558 -20697942.364 10 0 59207 63900.00000 0 -4210510.798 -12239138.667 -21968843.990 10 0 59207 64800.00000 0 -1615124.322 -11265469.331 -22812606.225 10 0 59207 65700.00000 0 1120957.219 -10471248.714 -23212612.406 10 0 59207 66600.00000 0 3930902.674 -9882536.881 -23160875.050 10 0 59207 67500.00000 0 6744084.300 -9513256.750 -22658207.335 10 0 59207 68400.00000 0 9488785.814 -9364656.849 -21714222.214 10 0 59207 69300.00000 0 12094965.393 -9425326.589 -20347158.016 10 0 59207 70200.00000 0 14496958.354 -9671764.241 -18583532.851 10 0 59207 71100.00000 0 16636006.342 -10069474.238 -16457633.626 10 0 59207 72000.00000 0 18462506.545 -10574547.600 -14010849.055 10 0 59207 72900.00000 0 19937886.171 -11135658.373 -11290859.410 10 0 59207 73800.00000 0 21036023.051 -11696390.802 -8350698.966 10 0 59207 74700.00000 0 21744152.425 -12197797.451 -5247710.183 10 0 59207 75600.00000 0 22063222.041 -12581078.320 -2042411.040 10 0 59207 76500.00000 0 22007681.354 -12790265.621 1202700.926 10 0 59207 77400.00000 0 21604714.976 -12774798.642 4424382.838 10 0 59207 78300.00000 0 20892954.506 -12491877.967 7559893.175 10 0 59207 79200.00000 0 19920725.144 -11908498.083 10548225.067 10 0 59207 80100.00000 0 18743903.340 -11003071.537 13331300.764 10 0 59207 81000.00000 0 17423477.935 -9766575.691 15855103.193 10 0 59207 81900.00000 0 16022919.390 -8203173.763 18070722.279 10 0 59207 82800.00000 0 14605469.151 -6330284.541 19935295.899 10 0 59207 83700.00000 0 13231463.756 -4178098.483 21412828.040 10 0 59207 84600.00000 0 11955805.905 -1788561.161 22474869.638 10 0 59207 85500.00000 0 10825687.772 786132.809 23101050.473 99